CW3175 Weather Reports


time (UTC)temp
F
wind
direction
speed
knots
gust
knots
rain 1hr
in
rain 24hr
in
rain mn
in
humidity
%
barometer
mb
20140903065743 71 275 0.0 0.0 0.00 0.00 0.00 72 1012.1
20140903064241 72 275 0.0 0.0 0.00 0.00 0.00 70 1012.1
20140903062733 72 275 0.0 0.0 0.00 0.00 0.00 69 1012.1
20140903061229 72 275 0.0 0.0 0.00 0.00 0.00 68 1012.3
20140903055711 73 275 0.0 0.0 0.00 0.00 0.00 66 1012.3
20140903054209 73 275 0.0 0.0 0.00 0.00 0.00 65 1012.3
20140903052652 74 275 0.0 2.6 0.00 0.00 0.00 63 1012.2
20140903051141 74 282 0.0 0.0 0.00 0.00 0.00 61 1012.2
20140903045631 74 282 0.0 0.0 0.00 0.00 0.00 60 1012.1
20140903044130 75 282 0.0 0.0 0.00 0.00 0.00 59 1012.0
20140903042631 75 282 0.0 1.7 0.00 0.00 0.00 58 1011.8
20140903041131 75 282 0.0 0.9 0.00 0.00 0.00 57 1011.7
20140903035621 76 282 0.0 0.9 0.00 0.00 0.00 55 1011.6
20140903034119 76 282 0.0 0.0 0.00 0.00 0.00 54 1011.3
20140903032550 76 282 0.0 1.7 0.00 0.00 0.00 53 1011.1
20140903031029 76 282 0.0 0.0 0.00 0.00 0.00 53 1011.1
20140903025529 76 282 0.0 0.9 0.00 0.00 0.00 53 1010.9
20140903024029 76 282 0.0 0.9 0.00 0.00 0.00 52 1010.7
20140903022526 76 282 0.0 0.9 0.00 0.00 0.00 52 1010.5
20140903021023 76 282 0.0 0.9 0.00 0.00 0.00 51 1010.2
20140903015455 77 282 0.0 1.7 0.00 0.00 0.00 50 1010.2
20140903013925 77 282 0.0 3.5 0.00 0.00 0.00 49 1010.1
20140903012354 78 282 0.0 3.5 0.00 0.00 0.00 48 1010.1
20140903010835 78 277 0.9 4.3 0.00 0.00 0.00 47 1009.9
20140903005258 78 269 0.0 7.8 0.00 0.00 0.00 46 1009.7
20140903003756 79 298 0.9 7.8 0.00 0.00 0.00 45 1009.6
20140903002252 79 281 0.9 5.2 0.00 0.00 0.00 43 1009.6
20140903000745 80 277 0.0 4.3 0.00 0.00 0.00 42 1009.2
20140902235222 80 279 1.7 9.6 0.00 0.00 0.00 40 1009.2
20140902233714 81 238 0.0 6.1 0.00 0.00 0.00 39 1009.1
20140902232208 82 305 0.9 7.8 0.00 0.00 0.00 37 1009.2
20140902230708 83 271 0.9 8.7 0.00 0.00 0.00 37 1009.1
20140902225208 84 275 0.9 7.8 0.00 0.00 0.00 35 1009.3
20140902223635 83 293 0.9 10.4 0.00 0.00 0.00 35 1009.5
20140902222132 84 283 1.7 7.8 0.00 0.00 0.00 35 1009.5
20140902220630 82 251 0.9 5.2 0.00 0.00 0.00 47 1009.5
20140902215129 80 46 0.9 4.3 0.00 0.00 0.00 51 1009.6
20140902213613 80 29 1.7 5.2 0.00 0.00 0.00 56 1009.6
20140902212114 80 49 4.3 11.3 0.00 0.00 0.00 54 1009.4
20140902210614 85 318 1.7 13.0 0.00 0.00 0.00 32 1009.4
20140902205110 86 317 1.7 13.0 0.00 0.00 0.00 31 1009.5
20140902203608 85 296 1.7 10.4 0.00 0.00 0.00 31 1009.5
20140902202108 85 321 3.5 12.2 0.00 0.00 0.00 32 1009.5
20140902200608 85 151 2.6 10.4 0.00 0.00 0.00 32 1009.5
20140902195106 85 327 1.7 11.3 0.00 0.00 0.00 31 1009.5
20140902193608 85 277 2.6 10.4 0.00 0.00 0.00 31 1009.6
20140902192105 85 348 1.7 8.7 0.00 0.00 0.00 30 1009.5
20140902190603 85 325 1.7 11.3 0.00 0.00 0.00 33 1009.5
20140902185103 85 275 2.6 9.6 0.00 0.00 0.00 34 1009.3
20140902183603 82 11 1.7 8.7 0.00 0.00 0.00 34 1009.3
20140902182104 80 132 0.0 4.3 0.00 0.00 0.00 63 1009.3
20140902180553 79 119 1.7 8.7 0.00 0.00 0.00 66 1009.1
20140902175051 79 51 1.7 11.3 0.00 0.00 0.00 67 1009.4
20140902173549 81 315 1.7 7.8 0.00 0.00 0.00 46 1009.4
20140902172024 80 150 1.7 7.0 0.00 0.00 0.00 53 1009.4
20140902170524 80 105 0.0 6.1 0.00 0.00 0.00 59 1009.5
20140902165025 79 65 0.9 5.2 0.00 0.00 0.00 62 1009.5
20140902163525 78 42 0.9 6.1 0.00 0.00 0.00 63 1009.5
20140902162021 77 138 0.9 5.2 0.00 0.00 0.00 66 1009.5
20140902160519 79 134 0.9 4.3 0.00 0.00 0.00 61 1009.7
20140902155015 79 109 0.0 3.5 0.00 0.00 0.00 61 1009.7
20140902153453 78 171 0.9 5.2 0.00 0.00 0.00 62 1009.8
20140902151953 79 264 0.0 4.3 0.00 0.00 0.00 58 1009.9
20140902150429 79 271 0.0 3.5 0.00 0.00 0.00 57 1009.9
20140902144906 78 256 0.0 3.5 0.00 0.00 0.00 61 1009.8
20140902143342 78 296 0.0 0.9 0.00 0.00 0.00 64 1009.5
20140902141821 77 296 0.0 0.9 0.00 0.00 0.00 67 1009.2
20140902140307 77 296 0.0 0.0 0.00 0.00 0.00 68 1009.0
20140902134757 75 296 0.0 3.5 0.00 0.00 0.00 72 1009.0
20140902133256 75 296 0.0 5.2 0.00 0.00 0.00 77 1009.0
20140902131751 74 254 0.0 1.7 0.00 0.00 0.00 82 1008.9
20140902130241 74 254 0.0 2.6 0.00 0.00 0.00 87 1008.9
20140902124730 72 254 0.0 0.9 0.00 0.00 0.00 90 1009.0
20140902123208 71 254 0.0 0.0 0.00 0.00 0.00 92 1008.7
20140902121704 71 254 0.0 0.0 0.00 0.00 0.00 92 1008.7
20140902120200 71 254 0.0 0.0 0.00 0.00 0.00 92 1008.8
20140902114638 71 254 0.0 0.0 0.00 0.00 0.00 92 1008.8
20140902113138 71 254 0.0 0.0 0.00 0.00 0.00 92 1008.9
20140902111638 71 254 0.0 0.0 0.00 0.00 0.00 92 1008.8
20140902110139 71 254 0.0 0.0 0.00 0.00 0.00 92 1008.4
20140902104632 71 254 0.0 0.0 0.00 0.00 0.00 91 1008.3
20140902103126 71 254 0.0 0.0 0.00 0.00 0.00 91 1008.2
20140902101602 71 254 0.0 0.0 0.00 0.00 0.00 90 1008.4
20140902100102 72 254 0.0 1.7 0.00 0.00 0.00 90 1008.4
20140902094554 72 254 0.0 0.0 0.00 0.00 0.00 90 1008.5
20140902093036 72 254 0.0 0.0 0.00 0.00 0.00 89 1008.5
20140902091530 72 254 0.0 0.0 0.00 0.00 0.00 89 1008.6
20140902090000 72 254 0.0 0.0 0.00 0.00 0.00 88 1008.4
20140902084439 72 254 0.0 0.9 0.00 0.00 0.00 88 1008.4
20140902082937 72 254 0.0 0.0 0.00 0.00 0.00 87 1008.3
20140902081433 73 254 0.0 1.7 0.00 0.00 0.00 86 1008.1
20140902075903 73 254 0.0 2.6 0.00 0.00 0.00 85 1008.3
20140902074334 73 254 0.0 0.9 0.00 0.00 0.00 84 1008.3
20140902072811 73 188 0.9 5.2 0.00 0.00 0.00 84 1007.7
20140902071305 74 186 1.7 6.1 0.00 0.00 0.00 82 1007.4